Погода в Ахалкалаки

Грузия     41°24′14″N   43°28′55″E
темп.,
°C
ветер,
м/с
пор.,
м/с
влажн.,
%
обл.,
%
осадки,
мм/ч
давл.,
гПа
погр.,
м
26 июля, пн
пн2601:00+13в22928 0.1 101750
04:00+13в229035 0.2 101736
07:00+14вюв339014 0.2 101780
10:00+20в23695 0.4 1015541
13:00+23всв33529 0.4 10141555
16:00+22всв445824 1.1 1012572
19:00+18всв348092 2.6 1015258
22:00+14в33904 4.1 101647
27 июля, вт
вт2701:00+13всв22922 0.1 101731
04:00+12в11938 0.2 101714
07:00+13в11913 0.0 101746
10:00+18сз227336 0.0 1014802
13:00+20зсз326419 0.4 10131114
16:00+20сз446595 2.8 1011860
19:00+16с34815 5.9 1013357
22:00+12ссв229520 6.3 101623
28 июля, ср
ср2801:00+11ссз119760 0.2 101649
04:00+12сз129684 0.4 101583
07:00+12сз129774 0.4 1015139
10:00+16ссз237836 0.7 1014760
13:00+18сз336973 1.9 10121162
16:00+18с236893 4.2 10121061
19:00+16с347735 1.4 1013489
22:00+11св229325 1.4 101730
29 июля, чт
чт2901:00+10в119421 0.0 101715
04:00+10в119422 0.0 101619
07:00+11св119278 0.0 101683
10:00+15св227459 0.1 1015669
13:00+17всв226493 0.1 10141092
16:00+19св326331 0.1 1013988
19:00+16всв33743 0.1 1014363
22:00+10в33901 0.1 101748
30 июля, пт
пт3001:00+9в33925 0.0 101743
04:00+8в33926 0.0 101647
07:00+10в23872 0.0 101664
10:00+17св12630 0.0 1013674
13:00+21ссв22522 0.0 10111498
16:00+22ссв33494 0.0 10101770
19:00+19св45680 0.0 1011439
22:00+12в348942 0.0 101545